RZO160 LPPD-LPMA

Flight info

Callsign RZO160
Flight time 1h 25m
Altitude 37000
Route VSM DCT ETROX DCT 35N020W DCT IRKID/N0447F370 DCT IBBAN
Aircraft A320/M-SDE1FGHIRWXY/S

Departure

Time 2026-05-05 20:22
Airport João Paulo II Airport (LPPD)

Arrival

Time 2026-05-05 21:47
Airport Cristiano Ronaldo International Airport (LPMA)
Time Latitude Longitude Altitude Speed Heading
2026-05-05 19:48 37.74843 -25.70997 272 ft 0 kts 23°
2026-05-05 20:11 37.74827 -25.71006 271 ft 4 kts 22°
2026-05-05 20:11 37.74803 -25.71021 271 ft 4 kts 38°
2026-05-05 20:12 37.74787 -25.71045 272 ft 4 kts 80°
2026-05-05 20:12 37.74787 -25.71062 272 ft 1 kts 112°
2026-05-05 20:15 37.74778 -25.71033 274 ft 8 kts 112°
2026-05-05 20:15 37.74745 -25.70929 273 ft 17 kts 111°
2026-05-05 20:16 37.74701 -25.70787 273 ft 18 kts 111°
2026-05-05 20:16 37.74653 -25.70635 272 ft 19 kts 111°
2026-05-05 20:16 37.74609 -25.70504 271 ft 13 kts 122°
2026-05-05 20:16 37.74568 -25.70441 267 ft 15 kts 135°
2026-05-05 20:17 37.74435 -25.70304 254 ft 22 kts 141°
2026-05-05 20:17 37.74355 -25.70209 245 ft 25 kts 132°
2026-05-05 20:17 37.74296 -25.70066 240 ft 20 kts 113°
2026-05-05 20:17 37.74237 -25.69884 233 ft 25 kts 111°
2026-05-05 20:18 37.74170 -25.69673 230 ft 28 kts 112°
2026-05-05 20:18 37.74104 -25.69469 223 ft 25 kts 111°
2026-05-05 20:18 37.74036 -25.69250 210 ft 25 kts 111°
2026-05-05 20:18 37.73972 -25.69043 206 ft 24 kts 111°
2026-05-05 20:19 37.73908 -25.68839 195 ft 21 kts 112°
2026-05-05 20:19 37.73849 -25.68656 192 ft 15 kts 113°
2026-05-05 20:19 37.73803 -25.68576 184 ft 11 kts 145°
2026-05-05 20:19 37.73744 -25.68526 184 ft 10 kts 127°
2026-05-05 20:20 37.73761 -25.68466 190 ft 8 kts 23°
2026-05-05 20:20 37.73801 -25.68506 185 ft 8 kts 291°
2026-05-05 20:20 37.73808 -25.68533 194 ft 0 kts 290°
2026-05-05 20:21 37.73821 -25.68573 190 ft 26 kts 291°
2026-05-05 20:21 37.73992 -25.69110 206 ft 99 kts 291°
2026-05-05 20:22 37.74333 -25.70132 269 ft 148 kts 296°
2026-05-05 20:22 37.74680 -25.71396 794 ft 155 kts 290°
2026-05-05 20:22 37.74921 -25.72732 1401 ft 160 kts 281°
2026-05-05 20:22 37.75001 -25.74186 1954 ft 175 kts 272°
2026-05-05 20:23 37.75037 -25.75824 2256 ft 199 kts 275°
2026-05-05 20:23 37.75118 -25.77680 2594 ft 225 kts 276°
2026-05-05 20:23 37.75226 -25.79764 3075 ft 249 kts 277°
2026-05-05 20:23 37.75353 -25.82019 3764 ft 263 kts 277°
2026-05-05 20:24 37.75488 -25.84346 4712 ft 267 kts 276°
2026-05-05 20:24 37.75477 -25.86710 5642 ft 274 kts 261°
2026-05-05 20:24 37.74734 -25.88953 6498 ft 284 kts 236°
2026-05-05 20:24 37.73270 -25.90660 7297 ft 293 kts 210°
2026-05-05 20:25 37.71328 -25.91460 8098 ft 298 kts 184°
2026-05-05 20:25 37.69273 -25.91145 8911 ft 300 kts 157°
2026-05-05 20:25 37.67527 -25.89754 9721 ft 299 kts 130°
2026-05-05 20:25 37.66389 -25.87586 10518 ft 298 kts 112°
2026-05-05 20:26 37.65264 -25.85275 10853 ft 324 kts 127°
2026-05-05 20:26 37.63731 -25.83043 11077 ft 348 kts 128°
2026-05-05 20:26 37.62113 -25.80682 11538 ft 361 kts 128°
2026-05-05 20:26 37.60457 -25.78257 12203 ft 368 kts 128°
2026-05-05 20:27 37.58863 -25.75716 12889 ft 371 kts 121°
2026-05-05 20:27 37.57521 -25.72913 13580 ft 375 kts 115°
2026-05-05 20:27 37.56314 -25.69970 14249 ft 380 kts 115°
2026-05-05 20:27 37.54893 -25.67126 14844 ft 388 kts 125°
2026-05-05 20:28 37.53015 -25.64656 15463 ft 394 kts 139°
2026-05-05 20:28 37.50764 -25.62653 16092 ft 399 kts 144°
2026-05-05 20:28 37.48438 -25.60701 16700 ft 404 kts 145°
2026-05-05 20:28 37.46081 -25.58740 17308 ft 408 kts 145°
2026-05-05 20:29 37.43707 -25.56755 17921 ft 412 kts 145°
2026-05-05 20:29 37.41316 -25.54740 18528 ft 416 kts 145°
2026-05-05 20:29 37.38910 -25.52696 19058 ft 420 kts 144°
2026-05-05 20:29 37.36484 -25.50625 19571 ft 423 kts 144°
2026-05-05 20:30 37.34035 -25.48529 20091 ft 427 kts 144°
2026-05-05 20:30 37.31564 -25.46420 20616 ft 431 kts 144°
2026-05-05 20:30 37.29099 -25.44321 21111 ft 436 kts 144°
2026-05-05 20:30 37.26573 -25.42175 21604 ft 440 kts 144°
2026-05-05 20:31 37.24029 -25.40020 22084 ft 444 kts 144°
2026-05-05 20:31 37.21456 -25.37847 22559 ft 448 kts 144°
2026-05-05 20:31 37.18856 -25.35656 23024 ft 452 kts 144°
2026-05-05 20:31 37.16240 -25.33450 23475 ft 456 kts 144°
2026-05-05 20:32 37.13588 -25.31210 23913 ft 459 kts 144°
2026-05-05 20:32 37.10926 -25.28962 24276 ft 463 kts 144°
2026-05-05 20:32 37.08247 -25.26697 24633 ft 467 kts 143°
2026-05-05 20:32 37.05543 -25.24414 24971 ft 470 kts 143°
2026-05-05 20:33 37.02814 -25.22117 25306 ft 474 kts 143°
2026-05-05 20:33 37.00073 -25.19805 25631 ft 476 kts 142°
2026-05-05 20:33 36.97505 -25.17203 25962 ft 475 kts 132°
2026-05-05 20:33 36.95280 -25.14159 26291 ft 473 kts 123°
2026-05-05 20:34 36.93448 -25.10773 26602 ft 470 kts 115°
2026-05-05 20:34 36.91761 -25.07261 26939 ft 473 kts 115°
2026-05-05 20:34 36.90056 -25.03725 27266 ft 475 kts 115°
2026-05-05 20:34 36.88341 -25.00187 27604 ft 478 kts 115°
2026-05-05 20:35 36.86613 -24.96628 27905 ft 481 kts 115°
2026-05-05 20:35 36.84874 -24.93046 28207 ft 483 kts 115°
2026-05-05 20:35 36.83126 -24.89442 28532 ft 485 kts 115°
2026-05-05 20:35 36.81372 -24.85832 28827 ft 487 kts 115°
2026-05-05 20:36 36.79609 -24.82214 29110 ft 490 kts 115°
2026-05-05 20:36 36.77853 -24.78621 29378 ft 492 kts 115°
2026-05-05 20:36 36.76067 -24.74973 29638 ft 494 kts 114°
2026-05-05 20:36 36.74276 -24.71310 29884 ft 496 kts 114°
2026-05-05 20:37 36.72480 -24.67634 30163 ft 498 kts 114°
2026-05-05 20:37 36.70670 -24.63930 30376 ft 501 kts 114°
2026-05-05 20:37 36.68854 -24.60223 30626 ft 501 kts 115°
2026-05-05 20:37 36.67038 -24.56528 30934 ft 499 kts 114°
2026-05-05 20:38 36.65222 -24.52847 31238 ft 498 kts 114°
2026-05-05 20:38 36.63408 -24.49175 31530 ft 497 kts 114°
2026-05-05 20:38 36.61594 -24.45503 31824 ft 496 kts 114°
2026-05-05 20:38 36.59792 -24.41850 32120 ft 495 kts 114°
2026-05-05 20:39 36.57989 -24.38194 32442 ft 494 kts 114°
2026-05-05 20:39 36.56191 -24.34551 32745 ft 494 kts 114°
2026-05-05 20:39 36.54396 -24.30920 33028 ft 493 kts 114°
2026-05-05 20:39 36.52602 -24.27295 33342 ft 491 kts 114°
2026-05-05 20:40 36.50811 -24.23680 33655 ft 490 kts 113°
2026-05-05 20:40 36.49024 -24.20073 33960 ft 489 kts 113°
2026-05-05 20:40 36.47239 -24.16473 34265 ft 488 kts 113°
2026-05-05 20:40 36.45458 -24.12889 34533 ft 488 kts 113°
2026-05-05 20:41 36.43672 -24.09304 34795 ft 487 kts 113°
2026-05-05 20:41 36.41891 -24.05737 35084 ft 486 kts 114°
2026-05-05 20:41 36.40205 -24.02128 35339 ft 478 kts 107°
2026-05-05 20:41 36.38908 -23.98377 35577 ft 472 kts 103°
2026-05-05 20:42 36.37686 -23.94601 35828 ft 470 kts 103°
2026-05-05 20:42 36.36463 -23.90835 36073 ft 469 kts 103°
2026-05-05 20:42 36.35255 -23.87132 36298 ft 468 kts 103°
2026-05-05 20:42 36.34028 -23.83385 36517 ft 468 kts 104°
2026-05-05 20:43 36.32799 -23.79647 36735 ft 467 kts 104°
2026-05-05 20:43 36.31569 -23.75917 36942 ft 467 kts 104°
2026-05-05 20:43 36.30340 -23.72196 37163 ft 466 kts 104°
2026-05-05 20:43 36.29111 -23.68469 37300 ft 467 kts 104°
2026-05-05 20:44 36.27884 -23.64750 37321 ft 467 kts 104°
2026-05-05 20:44 36.25421 -23.57292 37323 ft 467 kts 104°
2026-05-05 20:45 36.21744 -23.46190 37319 ft 466 kts 104°
2026-05-05 20:45 36.19280 -23.38771 37319 ft 466 kts 105°
2026-05-05 20:46 36.16802 -23.31344 37317 ft 467 kts 105°
2026-05-05 20:46 36.14320 -23.23917 37323 ft 467 kts 105°
2026-05-05 20:47 36.11833 -23.16485 37317 ft 467 kts 105°
2026-05-05 20:47 36.09339 -23.09054 37346 ft 468 kts 105°
2026-05-05 20:48 36.06830 -23.01634 37340 ft 468 kts 106°
2026-05-05 20:48 36.04323 -22.94205 37329 ft 468 kts 105°
2026-05-05 20:49 36.01811 -22.86774 37328 ft 469 kts 106°
2026-05-05 20:49 35.99286 -22.79336 37331 ft 469 kts 106°
2026-05-05 20:50 35.97186 -22.73161 37344 ft 469 kts 106°
2026-05-05 20:50 35.94232 -22.64485 37321 ft 469 kts 107°
2026-05-05 20:51 35.91700 -22.57066 37321 ft 469 kts 107°
2026-05-05 20:51 35.89159 -22.49642 37318 ft 469 kts 107°
2026-05-05 20:52 35.86606 -22.42232 37332 ft 470 kts 107°
2026-05-05 20:52 35.84070 -22.34866 37323 ft 470 kts 107°
2026-05-05 20:53 35.81512 -22.27453 37314 ft 470 kts 107°
2026-05-05 20:53 35.78957 -22.20045 37314 ft 470 kts 107°
2026-05-05 20:54 35.76393 -22.12641 37312 ft 470 kts 107°
2026-05-05 20:54 35.73819 -22.05227 37312 ft 470 kts 107°
2026-05-05 20:55 35.71234 -21.97837 37308 ft 470 kts 107°
2026-05-05 20:55 35.68649 -21.90443 37307 ft 470 kts 107°
2026-05-05 20:56 35.66064 -21.83064 37303 ft 470 kts 107°
2026-05-05 20:56 35.63472 -21.75677 37326 ft 470 kts 107°
2026-05-05 20:57 35.60890 -21.68335 37320 ft 470 kts 107°
2026-05-05 20:57 35.58282 -21.60920 37310 ft 470 kts 107°
2026-05-05 20:58 35.55693 -21.53600 37296 ft 470 kts 107°
2026-05-05 20:58 35.53087 -21.46241 37325 ft 470 kts 107°
2026-05-05 20:59 35.50904 -21.40079 37307 ft 470 kts 107°
2026-05-05 20:59 35.48299 -21.32736 37295 ft 469 kts 107°
2026-05-05 21:00 35.45678 -21.25399 37296 ft 469 kts 107°
2026-05-05 21:00 35.43058 -21.18077 37296 ft 469 kts 107°
2026-05-05 21:01 35.40426 -21.10748 37312 ft 469 kts 107°
2026-05-05 21:01 35.37791 -21.03423 37299 ft 469 kts 107°
2026-05-05 21:02 35.35161 -20.96107 37289 ft 469 kts 107°
2026-05-05 21:02 35.32548 -20.88842 37290 ft 469 kts 107°
2026-05-05 21:03 35.29909 -20.81537 37283 ft 469 kts 107°
2026-05-05 21:03 35.27262 -20.74246 37297 ft 469 kts 108°
2026-05-05 21:04 35.24611 -20.66957 37284 ft 469 kts 108°
2026-05-05 21:04 35.21956 -20.59667 37279 ft 469 kts 108°
2026-05-05 21:05 35.19299 -20.52379 37264 ft 469 kts 108°
2026-05-05 21:05 35.16634 -20.45096 37291 ft 469 kts 108°
2026-05-05 21:06 35.13961 -20.37803 37280 ft 469 kts 108°
2026-05-05 21:06 35.11281 -20.30516 37272 ft 470 kts 108°
2026-05-05 21:07 35.08602 -20.23247 37263 ft 470 kts 108°
2026-05-05 21:07 35.05919 -20.15966 37263 ft 470 kts 108°
2026-05-05 21:08 35.03242 -20.08736 37273 ft 470 kts 109°
2026-05-05 21:08 35.00538 -20.01473 37266 ft 471 kts 110°
2026-05-05 21:09 34.97095 -19.94608 37265 ft 476 kts 119°
2026-05-05 21:09 34.93416 -19.87871 37260 ft 477 kts 119°
2026-05-05 21:10 34.89747 -19.81142 37258 ft 477 kts 119°
2026-05-05 21:10 34.86072 -19.74412 37264 ft 477 kts 120°
2026-05-05 21:11 34.82397 -19.67678 37256 ft 477 kts 120°
2026-05-05 21:11 34.78730 -19.60956 37247 ft 477 kts 120°
2026-05-05 21:12 34.75051 -19.54237 37245 ft 477 kts 120°
2026-05-05 21:12 34.71361 -19.47530 37244 ft 477 kts 121°
2026-05-05 21:13 34.67665 -19.40817 37242 ft 477 kts 121°
2026-05-05 21:13 34.63966 -19.34123 37226 ft 477 kts 122°
2026-05-05 21:14 34.60267 -19.27431 37244 ft 477 kts 122°
2026-05-05 21:14 34.56569 -19.20744 37237 ft 477 kts 122°
2026-05-05 21:15 34.52862 -19.14062 37232 ft 477 kts 122°
2026-05-05 21:15 34.49159 -19.07394 37242 ft 477 kts 123°
2026-05-05 21:16 34.45449 -19.00719 37236 ft 477 kts 123°
2026-05-05 21:16 34.41740 -18.94053 37227 ft 477 kts 123°
2026-05-05 21:17 34.38018 -18.87400 37233 ft 477 kts 123°
2026-05-05 21:17 34.34310 -18.80784 37224 ft 477 kts 123°
2026-05-05 21:18 34.30576 -18.74126 37225 ft 478 kts 123°
2026-05-05 21:18 34.26839 -18.67484 37206 ft 478 kts 124°
2026-05-05 21:19 34.23102 -18.60843 37222 ft 477 kts 124°
2026-05-05 21:19 34.19364 -18.54217 37208 ft 477 kts 124°
2026-05-05 21:20 34.15620 -18.47590 37208 ft 477 kts 124°
2026-05-05 21:20 34.11881 -18.40972 37223 ft 477 kts 124°
2026-05-05 21:21 34.08136 -18.34364 37201 ft 477 kts 125°
2026-05-05 21:21 34.04384 -18.27766 37203 ft 477 kts 125°
2026-05-05 21:22 34.00618 -18.21165 37204 ft 477 kts 125°
2026-05-05 21:22 33.96866 -18.14576 37192 ft 477 kts 125°
2026-05-05 21:23 33.93116 -18.07989 37206 ft 477 kts 126°
2026-05-05 21:23 33.89264 -18.01481 37177 ft 477 kts 128°
2026-05-05 21:24 33.85280 -17.95180 37182 ft 476 kts 129°
2026-05-05 21:24 33.83259 -17.92014 36951 ft 476 kts 129°
2026-05-05 21:24 33.81253 -17.88843 36688 ft 476 kts 129°
2026-05-05 21:25 33.79265 -17.85666 36433 ft 476 kts 129°
2026-05-05 21:25 33.77281 -17.82477 36179 ft 476 kts 129°
2026-05-05 21:25 33.75298 -17.79284 35928 ft 476 kts 129°
2026-05-05 21:25 33.73317 -17.76099 35675 ft 476 kts 129°
2026-05-05 21:26 33.71324 -17.72904 34990 ft 479 kts 130°
2026-05-05 21:26 33.69311 -17.69685 33995 ft 483 kts 131°
2026-05-05 21:26 33.67287 -17.66453 32929 ft 485 kts 130°
2026-05-05 21:26 33.65253 -17.63207 31822 ft 488 kts 130°
2026-05-05 21:27 33.63207 -17.59949 30778 ft 490 kts 130°
2026-05-05 21:27 33.61154 -17.56685 29501 ft 485 kts 130°
2026-05-05 21:27 33.59164 -17.53517 28918 ft 463 kts 130°
2026-05-05 21:27 33.57238 -17.50452 28214 ft 459 kts 130°
2026-05-05 21:28 33.55319 -17.47408 27515 ft 457 kts 130°
2026-05-05 21:28 33.53406 -17.44378 26824 ft 454 kts 130°
2026-05-05 21:28 33.51502 -17.41365 26134 ft 452 kts 130°
2026-05-05 21:28 33.49607 -17.38369 25449 ft 450 kts 130°
2026-05-05 21:29 33.47710 -17.35367 24365 ft 456 kts 130°
2026-05-05 21:29 33.45778 -17.32312 23157 ft 461 kts 129°
2026-05-05 21:29 33.43859 -17.29276 21865 ft 453 kts 129°
2026-05-05 21:29 33.41972 -17.26291 20654 ft 445 kts 128°
2026-05-05 21:30 33.40120 -17.23366 19542 ft 437 kts 128°
2026-05-05 21:30 33.38298 -17.20495 18502 ft 428 kts 127°
2026-05-05 21:30 33.36510 -17.17684 17346 ft 421 kts 127°
2026-05-05 21:30 33.34750 -17.14919 16161 ft 416 kts 127°
2026-05-05 21:31 33.33011 -17.12184 15166 ft 407 kts 126°
2026-05-05 21:31 33.31320 -17.09525 14467 ft 393 kts 126°
2026-05-05 21:31 33.29706 -17.06992 13972 ft 375 kts 126°
2026-05-05 21:31 33.28155 -17.04566 13416 ft 359 kts 126°
2026-05-05 21:32 33.26671 -17.02250 12925 ft 344 kts 125°
2026-05-05 21:32 33.25219 -16.99981 12415 ft 343 kts 126°
2026-05-05 21:32 33.23779 -16.97731 11931 ft 338 kts 126°
2026-05-05 21:32 33.22361 -16.95514 11426 ft 336 kts 126°
2026-05-05 21:33 33.20961 -16.93323 10920 ft 335 kts 126°
2026-05-05 21:33 33.19594 -16.91184 10702 ft 312 kts 127°
2026-05-05 21:33 33.18310 -16.89174 10289 ft 299 kts 127°
2026-05-05 21:33 33.17051 -16.87209 10062 ft 293 kts 127°
2026-05-05 21:34 33.15826 -16.85298 9949 ft 294 kts 127°
2026-05-05 21:34 33.14588 -16.83365 9817 ft 292 kts 127°
2026-05-05 21:34 33.13357 -16.81447 9670 ft 291 kts 127°
2026-05-05 21:34 33.12125 -16.79532 9550 ft 290 kts 127°
2026-05-05 21:35 33.10894 -16.77620 9271 ft 290 kts 127°
2026-05-05 21:35 33.09664 -16.75707 8746 ft 292 kts 127°
2026-05-05 21:35 33.08433 -16.73791 8374 ft 287 kts 127°
2026-05-05 21:35 33.07227 -16.71921 7889 ft 283 kts 127°
2026-05-05 21:36 33.06037 -16.70071 7455 ft 280 kts 126°
2026-05-05 21:36 33.04849 -16.68227 7047 ft 280 kts 127°
2026-05-05 21:36 33.03662 -16.66387 6636 ft 280 kts 126°
2026-05-05 21:36 33.02476 -16.64546 6200 ft 279 kts 127°
2026-05-05 21:37 33.01292 -16.62717 5780 ft 277 kts 128°
2026-05-05 21:37 32.99884 -16.61164 5361 ft 276 kts 145°
2026-05-05 21:37 32.98168 -16.60169 4951 ft 275 kts 162°
2026-05-05 21:37 32.96286 -16.59797 4526 ft 275 kts 175°
2026-05-05 21:38 32.94386 -16.59690 4111 ft 273 kts 174°
2026-05-05 21:38 32.92494 -16.59579 3700 ft 272 kts 173°
2026-05-05 21:38 32.90610 -16.59465 3288 ft 271 kts 173°
2026-05-05 21:38 32.88787 -16.59354 3025 ft 254 kts 174°
2026-05-05 21:39 32.87062 -16.59288 2803 ft 243 kts 181°
2026-05-05 21:39 32.85359 -16.59719 2999 ft 255 kts 199°
2026-05-05 21:39 32.83810 -16.60789 2527 ft 263 kts 220°
2026-05-05 21:39 32.82461 -16.62235 2178 ft 260 kts 216°
2026-05-05 21:40 32.81475 -16.63016 2027 ft 253 kts 206°
2026-05-05 21:40 32.79877 -16.63838 2011 ft 251 kts 195°
2026-05-05 21:40 32.77682 -16.64726 2010 ft 250 kts 195°
2026-05-05 21:40 32.76029 -16.65397 2010 ft 252 kts 196°
2026-05-05 21:41 32.74373 -16.66069 2010 ft 250 kts 195°
2026-05-05 21:41 32.73282 -16.66511 2010 ft 250 kts 196°
2026-05-05 21:41 32.71617 -16.67187 2010 ft 254 kts 196°
2026-05-05 21:41 32.69952 -16.67861 2010 ft 252 kts 196°
2026-05-05 21:42 32.68314 -16.68525 2003 ft 241 kts 196°
2026-05-05 21:42 32.66798 -16.69146 2004 ft 220 kts 196°
2026-05-05 21:42 32.65397 -16.69718 2006 ft 208 kts 196°
2026-05-05 21:42 32.64049 -16.70269 2030 ft 196 kts 198°
2026-05-05 21:43 32.62921 -16.70981 2004 ft 173 kts 214°
2026-05-05 21:43 32.62067 -16.71904 2008 ft 164 kts 229°
2026-05-05 21:43 32.61429 -16.73006 2008 ft 161 kts 244°
2026-05-05 21:43 32.61025 -16.74220 2006 ft 156 kts 259°
2026-05-05 21:44 32.60853 -16.75474 2008 ft 153 kts 271°
2026-05-05 21:44 32.60906 -16.76730 2014 ft 152 kts 284°
2026-05-05 21:44 32.61176 -16.77923 2005 ft 148 kts 300°
2026-05-05 21:44 32.61696 -16.78939 1787 ft 140 kts 319°
2026-05-05 21:45 32.62402 -16.79684 1586 ft 133 kts 336°
2026-05-05 21:45 32.63219 -16.80153 1405 ft 130 kts 349°
2026-05-05 21:45 32.64100 -16.80347 1230 ft 128 kts
2026-05-05 21:45 32.64981 -16.80347 1067 ft 127 kts
2026-05-05 21:46 32.65864 -16.80347 907 ft 127 kts
2026-05-05 21:46 32.66727 -16.80242 741 ft 124 kts 16°
2026-05-05 21:46 32.67519 -16.79881 583 ft 121 kts 30°
2026-05-05 21:46 32.68209 -16.79294 414 ft 123 kts 41°
2026-05-05 21:47 32.68796 -16.78585 259 ft 122 kts 39°
2026-05-05 21:47 32.69401 -16.77906 176 ft 101 kts 44°
2026-05-05 21:47 32.69718 -16.77532 176 ft 36 kts 45°
2026-05-05 21:47 32.69811 -16.77422 176 ft 13 kts 45°
2026-05-05 21:48 32.69947 -16.77260 176 ft 25 kts 44°
2026-05-05 21:48 32.69947 -16.77180 176 ft 4 kts 164°
2026-05-05 21:48 32.69875 -16.77180 176 ft 19 kts 181°
2026-05-05 21:48 32.69774 -16.77257 176 ft 16 kts 226°
2026-05-05 21:49 32.69703 -16.77350 176 ft 14 kts 229°
2026-05-05 21:49 32.69638 -16.77431 176 ft 13 kts 224°
2026-05-05 21:49 32.69579 -16.77502 176 ft 11 kts 226°
2026-05-05 21:49 32.69529 -16.77563 176 ft 9 kts 226°
2026-05-05 21:50 32.69489 -16.77612 176 ft 7 kts 227°
2026-05-05 21:50 32.69459 -16.77649 176 ft 5 kts 226°
2026-05-05 21:50 32.69422 -16.77695 176 ft 11 kts 226°
2026-05-05 21:50 32.69376 -16.77751 176 ft 8 kts 226°
2026-05-05 21:51 32.69344 -16.77761 176 ft 3 kts 163°
2026-05-05 21:51 32.69330 -16.77751 176 ft 3 kts 146°
2026-05-05 21:51 32.69321 -16.77742 176 ft 1 kts 142°
2026-05-05 21:51 32.69317 -16.77739 176 ft 0 kts 141°
2026-05-05 21:52 32.69310 -16.77731 176 ft 0 kts 139°